When you browse on this site, cookies collect data to enhance your experience and personalize the content and advertising you see.
Visit our Privacy Policy to learn more. By continuing to use the site, you agree to this use of cookies and data.
  • In Austria
  • List of Countries
  • For 7 days
  • Water Temperature
  • Satellite Maps
  • Weather Map
  • News
  • Weather Widgets
  • user-avatar
    Login

    Hourly Weather Troy

    Today, 21 July, Sunday

    Time Temperature Precipitation Wind Pressure Humidity
    00:00 +27°C° 0.6 mm 1 mps 754 mmHg 91%
    01:00 +27°C° 0 mm 1 mps 754 mmHg 94%
    02:00 +27°C° 0.2 mm 1 mps 754 mmHg 94%
    03:00 +27°C° 0.2 mm 1 mps 753 mmHg 94%
    04:00 +26°C° 0.2 mm 1 mps 753 mmHg 94%
    05:00 +27°C° 0.1 mm 2 mps 754 mmHg 92%
    06:00 +28°C° 0.1 mm 2 mps 754 mmHg 89%
    07:00 +28°C° 0 mm 1 mps 755 mmHg 81%
    08:00 +30°C° 0 mm 2 mps 754 mmHg 72%
    09:00 +33°C° 0 mm 3 mps 754 mmHg 63%
    10:00 +35°C° 0 mm 4 mps 754 mmHg 55%
    11:00 +35°C° 0 mm 4 mps 754 mmHg 53%
    12:00 +36°C° 0 mm 5 mps 754 mmHg 51%
    13:00 +36°C° 0 mm 5 mps 753 mmHg 49%
    14:00 +35°C° 0 mm 5 mps 753 mmHg 51%
    15:00 +35°C° 0 mm 5 mps 753 mmHg 53%
    16:00 +34°C° 0 mm 5 mps 754 mmHg 55%
    17:00 +32°C° 0 mm 5 mps 754 mmHg 57%
    18:00 +29°C° 0 mm 4 mps 755 mmHg 59%
    19:00 +28°C° 0 mm 4 mps 755 mmHg 61%
    20:00 +26°C° 0 mm 3 mps 756 mmHg 61%
    21:00 +25°C° 0 mm 3 mps 756 mmHg 61%
    22:00 +24°C° 0 mm 2 mps 756 mmHg 62%
    23:00 +23°C° 0 mm 2 mps 756 mmHg 65%

    Tomorrow, 22 July, Monday

    Time Temperature Precipitation Wind Pressure Humidity
    00:00 +22°C° 0 mm 1 mps 756 mmHg 69%
    01:00 +21°C° 0 mm 1 mps 757 mmHg 73%
    02:00 +21°C° 0 mm 1 mps 756 mmHg 75%
    03:00 +20°C° 0 mm 1 mps 756 mmHg 77%
    04:00 +18°C° 0 mm 0 mps 756 mmHg 80%
    05:00 +19°C° 0 mm 0 mps 756 mmHg 79%
    06:00 +22°C° 0 mm 1 mps 757 mmHg 78%
    07:00 +22°C° 0 mm 1 mps 757 mmHg 77%
    08:00 +23°C° 0 mm 1 mps 757 mmHg 76%
    09:00 +23°C° 0 mm 1 mps 757 mmHg 76%
    10:00 +23°C° 0 mm 1 mps 757 mmHg 76%
    11:00 +21°C° 0.2 mm 2 mps 756 mmHg 81%
    12:00 +21°C° 0.2 mm 2 mps 756 mmHg 86%
    13:00 +20°C° 0.2 mm 3 mps 756 mmHg 91%
    14:00 +20°C° 4.4 mm 3 mps 756 mmHg 93%
    15:00 +19°C° 4.4 mm 3 mps 756 mmHg 94%
    16:00 +19°C° 4.4 mm 3 mps 755 mmHg 96%
    17:00 +19°C° 8 mm 2 mps 755 mmHg 97%
    18:00 +20°C° 8 mm 1 mps 755 mmHg 97%
    19:00 +20°C° 8 mm 1 mps 755 mmHg 97%
    20:00 +20°C° 3.2 mm 1 mps 755 mmHg 97%
    21:00 +20°C° 3.2 mm 1 mps 755 mmHg 97%
    22:00 +20°C° 3.2 mm 1 mps 755 mmHg 97%
    23:00 +20°C° 1.9 mm 1 mps 755 mmHg 97%

    Day after tomorrow, 23 July, Tuesday

    Time Temperature Precipitation Wind Pressure Humidity
    00:00 +20°C° 1.9 mm 1 mps 755 mmHg 97%
    01:00 +20°C° 1.9 mm 1 mps 755 mmHg 97%
    02:00 +20°C° 0.3 mm 1 mps 755 mmHg 97%
    03:00 +20°C° 0.3 mm 1 mps 755 mmHg 96%
    04:00 +20°C° 0.3 mm 1 mps 755 mmHg 96%
    05:00 +20°C° 0.1 mm 1 mps 755 mmHg 96%
    06:00 +20°C° 0.1 mm 1 mps 756 mmHg 95%
    07:00 +20°C° 0.1 mm 1 mps 756 mmHg 95%
    08:00 +21°C° 0.1 mm 1 mps 756 mmHg 90%
    09:00 +22°C° 0.1 mm 1 mps 756 mmHg 85%
    10:00 +23°C° 0.1 mm 2 mps 756 mmHg 80%
    11:00 +25°C° 0.1 mm 1 mps 756 mmHg 70%
    12:00 +27°C° 0.1 mm 1 mps 756 mmHg 60%
    13:00 +28°C° 0.1 mm 1 mps 756 mmHg 50%
    14:00 +28°C° 0 mm 1 mps 756 mmHg 51%
    15:00 +28°C° 0 mm 1 mps 756 mmHg 51%
    16:00 +28°C° 0 mm 2 mps 756 mmHg 51%
    17:00 +27°C° 0 mm 2 mps 756 mmHg 57%
    18:00 +25°C° 0 mm 1 mps 757 mmHg 63%
    19:00 +24°C° 0 mm 1 mps 757 mmHg 68%
    20:00 +23°C° 0 mm 2 mps 757 mmHg 68%
    21:00 +21°C° 0 mm 2 mps 758 mmHg 67%
    22:00 +19°C° 0 mm 2 mps 758 mmHg 67%
    23:00 +19°C° 0 mm 2 mps 758 mmHg 70%

    24 July, Wednesday

    Time Temperature Precipitation Wind Pressure Humidity
    00:00 +18°C° 0 mm 2 mps 758 mmHg 74%
    01:00 +18°C° 0 mm 1 mps 759 mmHg 78%
    02:00 +16°C° 0 mm 1 mps 759 mmHg 79%
    03:00 +16°C° 0 mm 1 mps 759 mmHg 81%
    04:00 +15°C° 0 mm 1 mps 759 mmHg 82%
    05:00 +16°C° 0 mm 1 mps 759 mmHg 78%
    06:00 +18°C° 0 mm 1 mps 760 mmHg 74%
    07:00 +20°C° 0 mm 1 mps 760 mmHg 70%
    08:00 +22°C° 0 mm 1 mps 760 mmHg 62%
    09:00 +23°C° 0 mm 1 mps 760 mmHg 54%
    10:00 +25°C° 0 mm 2 mps 760 mmHg 46%
    11:00 +26°C° 0 mm 2 mps 760 mmHg 44%
    12:00 +27°C° 0 mm 2 mps 760 mmHg 42%
    13:00 +28°C° 0 mm 2 mps 760 mmHg 40%
    14:00 +28°C° 0 mm 2 mps 760 mmHg 42%
    15:00 +27°C° 0 mm 2 mps 760 mmHg 44%
    16:00 +27°C° 0 mm 3 mps 759 mmHg 46%
    17:00 +26°C° 0 mm 2 mps 760 mmHg 54%
    18:00 +24°C° 0 mm 2 mps 760 mmHg 61%
    19:00 +22°C° 0 mm 1 mps 760 mmHg 68%
    20:00 +21°C° 0 mm 1 mps 760 mmHg 71%
    21:00 +20°C° 0 mm 1 mps 761 mmHg 73%
    22:00 +19°C° 0 mm 1 mps 761 mmHg 76%
    23:00 +19°C° 0 mm 1 mps 761 mmHg 78%

    25 July, Thursday

    Time Temperature Precipitation Wind Pressure Humidity
    00:00 +16°C° 0 mm 0 mps 761 mmHg 80%
    01:00 +15°C° 0 mm 0 mps 761 mmHg 81%
    02:00 +15°C° 0 mm 0 mps 762 mmHg 82%
    03:00 +15°C° 0 mm 0 mps 762 mmHg 82%
    04:00 +14°C° 0 mm 0 mps 762 mmHg 83%
    05:00 +16°C° 0 mm 0 mps 762 mmHg 78%
    06:00 +17°C° 0 mm 0 mps 762 mmHg 73%
    07:00 +19°C° 0 mm 0 mps 763 mmHg 68%
    08:00 +23°C° 0 mm 1 mps 763 mmHg 62%
    09:00 +25°C° 0 mm 1 mps 763 mmHg 56%
    10:00 +27°C° 0 mm 1 mps 763 mmHg 50%
    11:00 +28°C° 0 mm 2 mps 763 mmHg 48%
    12:00 +29°C° 0 mm 2 mps 762 mmHg 46%
    13:00 +30°C° 0 mm 2 mps 762 mmHg 44%
    14:00 +30°C° 0 mm 3 mps 762 mmHg 47%
    15:00 +30°C° 0 mm 3 mps 762 mmHg 49%
    16:00 +30°C° 0 mm 3 mps 762 mmHg 51%
    17:00 +28°C° 0.2 mm 2 mps 763 mmHg 59%
    18:00 +26°C° 0.2 mm 2 mps 763 mmHg 67%
    19:00 +25°C° 0.2 mm 1 mps 763 mmHg 74%
    20:00 +24°C° 0.1 mm 1 mps 764 mmHg 77%
    21:00 +23°C° 0.1 mm 1 mps 764 mmHg 80%
    22:00 +19°C° 0.1 mm 0 mps 765 mmHg 83%
    23:00 +19°C° 0 mm 0 mps 765 mmHg 84%

    26 July, Friday

    Time Temperature Precipitation Wind Pressure Humidity
    00:00 +19°C° 0 mm 0 mps 765 mmHg 86%
    01:00 +18°C° 0 mm 0 mps 765 mmHg 87%
    02:00 +18°C° 0 mm 0 mps 765 mmHg 88%
    03:00 +18°C° 0 mm 0 mps 765 mmHg 88%
    04:00 +17°C° 0 mm 0 mps 765 mmHg 89%
    05:00 +19°C° 0 mm 0 mps 766 mmHg 86%
    06:00 +20°C° 0 mm 0 mps 766 mmHg 83%
    07:00 +21°C° 0 mm 0 mps 766 mmHg 81%
    08:00 +23°C° 0 mm 0 mps 766 mmHg 72%
    09:00 +28°C° 0 mm 1 mps 766 mmHg 63%
    10:00 +30°C° 0 mm 1 mps 766 mmHg 54%
    11:00 +31°C° 0 mm 1 mps 766 mmHg 51%
    12:00 +32°C° 0 mm 1 mps 766 mmHg 47%
    13:00 +33°C° 0 mm 1 mps 766 mmHg 43%
    14:00 +33°C° 0 mm 1 mps 765 mmHg 44%
    15:00 +32°C° 0 mm 1 mps 765 mmHg 46%
    16:00 +32°C° 0 mm 2 mps 765 mmHg 47%
    17:00 +30°C° 0.1 mm 1 mps 765 mmHg 55%
    18:00 +28°C° 0.1 mm 1 mps 766 mmHg 63%
    19:00 +26°C° 0.1 mm 1 mps 766 mmHg 72%
    20:00 +25°C° 0 mm 1 mps 766 mmHg 74%
    21:00 +24°C° 0 mm 1 mps 766 mmHg 75%
    22:00 +22°C° 0 mm 0 mps 767 mmHg 77%
    23:00 +23°C° 0 mm 1 mps 767 mmHg 79%
    Show more